Location: Bo?e?ovice
(49.7649°N, 14.7926°E)
Time: 00:13:50
(UTC+00:00)

Daily predictions for brighter satellites

Satellite Brightness Start Highest point End
(mag) Time Altitude Azimuth Time Altitude Azimuth Time Altitude Azimuth
SL-16 R/B 3.9 00:24:54 33° NNE 00:24:54 33° NNE 00:28:44 10° N
ADEOS II 4.4 00:23:44 10° NE 00:25:42 19° NE 00:25:42 19° NE
ATLAS CENTAUR R/B 4.2 00:30:37 46° ENE 00:30:37 46° ENE 00:38:24 10° NE
CZ-2D R/B 4.2 00:28:01 10° NNE 00:30:15 24° NE 00:30:15 24° NE
Cosmos 2082 Rocket 4.0 00:50:59 25° N 00:50:59 25° N 00:53:38 10° NNE
ATLAS 5 CENTAUR R/B 4.4 01:05:49 13° NNE 01:05:49 13° NNE 01:06:39 10° NNE
COSMOS 2428 4.3 00:59:19 10° NNW 01:04:24 32° NE 01:09:28 10° ESE
Cosmos 2219 Rocket 4.4 01:07:55 10° NNW 01:09:04 16° NNW 01:09:04 16° NNW
USA 215 3.6 01:09:19 10° E 01:15:45 60° NNE 01:16:11 59° N
ALOS 4.3 01:15:12 10° NE 01:17:58 25° ENE 01:17:58 25° ENE
ATLAS 2AS CENTAUR R/B 2.9 01:22:05 70° N 01:22:05 70° N 01:28:36 10° NE
CZ-2C R/B 4.2 01:32:46 10° NNE 01:38:10 40° E 01:38:52 38° ESE
Thor Agena Rocket 4.3 01:36:12 10° NNE 01:40:54 49° E 01:40:54 49° E
USA 229 DEB 4.3 01:34:32 10° NW 01:41:44 62° NE 01:49:34 10° ESE
USA 229 4.3 01:34:38 10° NW 01:41:49 61° NE 01:49:37 10° ESE
Resurs 1-4 Rocket 3.5 01:40:48 10° N 01:43:37 30° NNW 01:43:37 30° NNW
NOSS 3-1 (A) 3.9 01:55:42 48° WNW 01:58:07 75° SW 02:06:52 10° SSE
ATLAS CENTAUR R/B 4.0 01:59:18 11° N 02:00:12 12° NNE 02:01:39 10° NE
Cosmos 883 Rocket 4.4 01:54:32 10° N 02:00:36 78° WNW 02:00:36 78° WNW
SL-16 R/B 4.0 02:10:00 23° NW 02:10:00 23° NW 02:12:26 10° NNW
USA 281 3.0 02:00:03 10° NNE 02:06:39 78° WNW 02:07:16 72° WSW
ADEOS II 3.0 02:03:02 10° N 02:06:36 38° NNW 02:06:36 38° NNW
Cosmos 2266 Rocket 4.0 02:09:14 68° WNW 02:09:14 68° WNW 02:15:32 10° N
IRS-1D 4.2 02:06:57 10° NNE 02:12:09 53° E 02:13:40 40° SSE
Cosmos 2315 Rocket 3.9 02:06:24 10° NNW 02:12:46 75° W 02:13:09 72° SW
CZ-2D R/B 3.5 02:08:21 10° N 02:11:32 27° NNW 02:11:32 27° NNW
Envisat 4.3 02:09:49 10° NNE 02:14:33 38° E 02:17:37 19° SSE
CZ-2C R/B 4.0 02:19:08 25° NNW 02:19:08 25° NNW 02:21:25 10° NNW
Cosmos 2297 Rocket 4.3 02:14:16 10° SSE 02:18:32 23° ESE 02:22:50 10° NE
IDEFIX/ARIANE 42P 4.1 02:16:59 10° N 02:19:53 24° NNW 02:19:53 24° NNW
Cosmos 2221 4.3 02:26:56 22° NNW 02:26:56 22° NNW 02:28:48 10° N
Cosmos 2237 Rocket 3.2 02:20:34 10° NNW 02:26:04 47° NE 02:31:32 10° SE
Cosmos 1125 Rocket 3.5 02:25:56 64° S 02:26:40 76° ESE 02:31:52 10° NNE
METEOR-M 4.4 02:24:58 10° NNE 02:30:18 67° ESE 02:32:41 33° S
Cosmos 1536 3.6 02:26:31 10° N 02:30:19 49° ENE 02:32:06 27° SE
CZ-4 R/B 4.4 02:25:53 10° N 02:29:31 45° NNW 02:29:31 45° NNW
Lacrosse 5 rocket 1.8 02:31:30 53° NNE 02:31:30 53° NNE 02:34:38 10° NE
Lacrosse 4 Rocket 4.1 02:33:06 10° NNW 02:33:19 10° NNW 02:33:42 10° NNW
Cosmos 2082 Rocket 4.3 02:32:50 13° NW 02:33:56 13° NNW 02:36:41 10° N
SL-16 R/B 4.4 02:30:32 10° NNW 02:35:08 24° NE 02:39:43 10° E
ATLAS CENTAUR R/B 4.1 02:34:10 36° WNW 02:37:33 60° N 02:51:07 10° ENE
Cosmos 1500 Rocket 3.8 02:35:44 10° NNW 02:39:12 54° NNW 02:39:12 54° NNW
YAOGAN 11 4.1 02:40:02 10° SSE 02:44:32 87° ENE 02:49:00 10° NNW
FENGYUN 3A 4.1 02:39:54 10° N 02:44:54 42° WNW 02:44:54 42° WNW
Cosmos 1378 3.9 02:47:37 40° N 02:47:37 40° N 02:49:59 10° N
NOSS 0 Rocket 3.8 02:41:27 10° NNW 02:47:45 85° WSW 02:54:00 10° SSE
SL-27 R/B 4.5 02:50:53 17° N 02:50:53 17° N 02:51:52 10° N
COSMOS 2428 2.7 02:43:24 10° NW 02:48:59 57° WSW 02:54:33 10° S
PAYLOAD A 4.0 02:44:29 10° NNE 02:49:25 80° ESE 02:52:13 27° S
ATLAS 5 CENTAUR R/B 4.0 02:46:59 10° NNW 02:49:31 15° N 02:52:19 10° NE
CZ-2C R/B 2.1 02:50:20 10° NNE 02:55:08 83° WNW 02:56:50 40° SSW
ALOS 2.9 02:52:19 10° N 02:56:20 38° WNW 02:56:20 38° WNW
Cosmos 1151 Rocket 3.6 02:54:46 13° S 02:58:37 59° E 03:02:57 10° NNE
USA 215 3.2 02:52:13 10° SE 02:58:45 68° SW 03:03:31 20° WNW
Cosmos 2227 Rocket 4.0 03:00:20 10° SSE 03:05:10 30° ESE 03:10:02 10° NE
ARIANE 5 R/B 4.3 03:01:21 10° NNE 03:05:50 32° E 03:10:16 10° SSE
Cosmos 1666 Rocket 4.1 03:02:47 10° N 03:07:08 59° ENE 03:11:25 10° SSE
Cosmos 2298 Rocket 3.9 03:05:10 33° SW 03:07:35 74° WNW 03:12:54 10° NNE
Cosmos 44 Rocket 4.1 03:05:11 17° S 03:08:48 51° ESE 03:13:49 10° NE
Meteor 2-20 4.4 03:03:08 10° N 03:09:20 87° ENE 03:15:30 10° S
Meteor 1-27 Rocket 3.8 03:06:30 10° S 03:12:07 78° E 03:17:53 10° NNE
ATLAS 2AS CENTAUR R/B 3.8 03:09:31 21° WNW 03:13:23 33° NNW 03:19:42 10° NE
DMSP B5D2-2 4.1 03:10:18 10° SSE 03:15:34 88° ENE 03:20:54 10° NNW
CZ-2C R/B 3.8 03:12:40 10° N 03:17:57 39° WNW 03:19:54 29° WSW
Cosmos 2150 Rocket 4.0 03:16:29 28° SW 03:19:13 62° WNW 03:24:27 10° NNE
Meteor 1-19 Rocket 4.4 03:16:12 10° S 03:21:43 73° E 03:27:10 10° NNE
Cosmos 1269 Rocket 4.0 03:17:29 10° NNW 03:22:49 89° ENE 03:28:06 10° SSE
Helios 1A 3.0 03:20:23 10° SSE 03:24:28 81° ENE 03:28:34 10° NNW
Cosmos 1743 Rocket 4.2 03:23:10 10° NNW 03:27:03 32° W 03:27:40 31° WSW
Meteor 1-11 Rocket 4.0 03:22:36 10° NNW 03:28:18 50° W 03:34:00 10° SSW
Cosmos 614 Rocket 3.8 03:23:37 10° NNW 03:28:45 71° WSW 03:33:53 10° SSE
Cosmos 1805 Rocket 4.2 03:25:34 10° NNW 03:29:27 32° W 03:30:45 27° SW
Cosmos 1980 3.7 03:26:32 10° NW 03:32:07 62° WSW 03:37:41 10° SSE
USA 229 DEB 4.2 03:25:40 10° NW 03:32:40 45° WSW 03:40:09 10° S
USA 229 4.2 03:25:45 10° NW 03:32:46 46° WSW 03:40:15 10° S
Cosmos 1633 Rocket 3.0 03:31:24 10° N 03:35:50 87° W 03:40:14 10° S
Cosmos 1745 Rocket 4.0 03:30:31 10° S 03:36:52 83° W 03:43:17 10° N
Sich 1 3.8 03:34:29 10° NNW 03:38:14 29° W 03:41:10 14° SW
ATLAS CENTAUR R/B 2.1 03:35:45 10° NNW 03:39:12 43° NE 03:42:38 10° ESE
Cosmos 1484 Rocket 2.5 03:36:38 10° N 03:40:16 72° WNW 03:43:53 10° SSW
NOAA 11 4.2 03:35:16 10° N 03:40:41 61° WNW 03:46:04 10° SSW
GP-B 3.8 03:38:17 19° SW 03:40:46 32° W 03:44:47 10° NNW
Meteor 2-9 Rocket 4.3 03:35:03 10° NNW 03:40:48 61° W 03:46:27 10° S
H-2A R/B 3.3 03:36:29 10° NNE 03:41:46 47° E 03:46:55 10° S
YAOGAN 6 3.5 03:41:56 10° N 03:44:52 27° WNW 03:45:35 25° W
BREEZE-M DEB (TANK) 4.3 03:38:08 13° SW 03:47:25 56° SSE 03:50:59 10° E
BlueWalker 3 3.7 03:48:24 15° SW 03:48:24 15° SW 03:50:25 10° S
USA 281 4.5 03:45:19 10° N 03:50:19 24° NW 03:54:08 14° W
Envisat 3.7 03:48:55 10° N 03:53:30 35° WNW 03:57:47 11° SW
SKYMED 2 3.8 03:55:40 10° SSE 03:59:59 74° ENE 04:04:21 10° N
Cosmos 2297 Rocket 2.2 03:56:25 10° SW 04:02:03 69° WNW 04:07:43 10° NNE
Cosmos 1939 Rocket 3.1 03:59:16 10° NNE 04:03:08 69° ESE 04:07:01 10° S
Cosmos 1536 4.3 04:03:43 10° NW 04:06:03 16° W 04:07:16 14° WSW
Lacrosse 5 rocket 2.5 04:06:40 12° WNW 04:09:52 30° N 04:13:15 10° NE
Cosmos 2237 Rocket 2.8 04:04:54 10° NW 04:10:00 35° WSW 04:15:04 10° S
Cosmos 2219 3.8 04:06:47 10° SSW 04:12:21 61° ESE 04:17:55 10° NE
Cosmos 1470 Rocket 3.6 04:08:11 10° NNW 04:12:37 60° W 04:17:00 10° S
Meteor 2-10 4.1 04:09:57 10° NNW 04:15:05 52° W 04:20:02 10° S
Cosmos 2181 Rocket 4.0 04:09:30 10° N 04:15:44 89° ENE 04:21:52 10° S
SL-16 R/B 2.2 04:14:13 10° NNW 04:19:57 82° WSW 04:25:39 10° SSE
Okean 1 4.4 04:17:16 10° SW 04:20:26 24° WNW 04:23:38 10° NNW
Cosmos 1726 2.7 04:19:23 10° NNW 04:22:26 30° W 04:25:27 10° SSW
H-2A R/B 3.0 04:19:10 10° N 04:22:26 37° WNW 04:25:39 10° SW
SL-08 R/B 3.3 04:17:48 10° S 04:22:35 71° WSW 04:27:30 10° NNW
ERS-2 1.7 04:20:46 10° N 04:23:54 63° WNW 04:27:00 10° SSW
Cosmos 1975 3.1 04:21:11 10° NNW 04:24:58 45° W 04:28:45 10° SSW
ARGOS 4.1 04:24:13 10° NNE 04:29:32 55° E 04:34:50 10° S
IRS-1C 4.3 04:24:29 10° N 04:29:39 51° WNW 04:34:48 10° SW
Cosmos 2344 3.6 04:24:31 10° SW 04:32:02 84° SE 04:39:37 10° NE
CZ-2C R/B 4.1 04:30:06 10° NNW 04:32:32 14° NW 04:34:55 10° W
SJ-12 3.9 04:29:50 10° NNE 04:33:53 90° E 04:37:54 10° SSW
ATLAS 5 CENTAUR R/B 3.6 04:30:57 10° NNW 04:35:05 30° NNE 04:40:00 10° E
